Location: Unspecified
(0.0000°N, 0.0000°E)
Time: 09:00:28
(UTC+00:00)

Megsat 1 - Visible Passes

Search period start: 16 September 2024 00:00
Search period end: 26 September 2024 00:00
Orbit: 579 x 620 km, 64.6° (Epoch: 15 September)

Date Brightness Start Highest point End Pass type
(mag) Time Alt. Az. Time Alt. Az. Time Alt. Az.
22 Sep 8.5 18:57:43 10° NNE 18:57:58 11° NNE 18:57:58 11° NNE visible
23 Sep 7.1 19:07:20 10° N 19:10:16 32° NE 19:10:16 32° NE visible
24 Sep 6.1 19:17:53 10° NNW 19:22:10 88° WSW 19:22:58 59° SSE visible
25 Sep 7.8 19:29:07 10° NW 19:33:01 35° WSW 19:36:08 15° S visible
